Regional Weather Roundup
Issued by NWS

Home | Current Version | Previous Version | Graphics & Text | Print | Product List | Glossary On
Versions: 1 2 3 4 5 6 7 8 9 10 11 12 13 14 15 16 17 18 19 20 21 22 23 24 25 26 27 28 29 30 31 32 33 34 35 36 37 38 39 40 41 42 43 44 45 46 47 48 49 50
000
ASUS44 KMEG 231700
RWRTN
TENNESSEE HOURLY STATE WEATHER ROUNDUP
NATIONAL WEATHER SERVICE MEMPHIS TN
1100 AM CST FRI FEB 23 2018

TNZ002-004-019-021-049-052-054-088>092-231800-
WEST TENNESSEE

CITY           SKY/WX    TMP DP  RH WIND       PRES   REMARKS
MEMPHIS INTL   PTSUNNY   63  60  90 CALM      30.29S
NWS MEMPHIS      N/A     64 N/A N/A MISG        N/A
JACKSON        CLOUDY    65  63  93 CALM      30.30F
DYERSBURG      FAIR      61  58  90 VRB6      30.28F
$$

TNZ008-025-027-028-033-062-065-066-231800-
NORTH MIDDLE TENNESSEE

CITY           SKY/WX    TMP DP  RH WIND       PRES   REMARKS
NASHVILLE      PTSUNNY   77  60  55 SW10G20   30.33F
CLARKSVILLE    PTSUNNY   70  62  76 S8        30.29F
SMYRNA         FAIR      76  62  62 SW9G18    30.34F
CROSSVILLE     PTSUNNY   72  59  63 S8        30.40S
$$

TNZ061-075-076-078-094-096-097-231800-
SOUTH MIDDLE TENNESSEE

CITY           SKY/WX    TMP DP  RH WIND       PRES   REMARKS
WINCHESTER     CLOUDY    72  61  68 W5        30.37F
$$

TNZ017-018-042-046-047-231800-
NORTHEAST TENNESSEE

CITY           SKY/WX    TMP DP  RH WIND       PRES   REMARKS
TRI CITIES     FAIR      75  57  53 S8        30.38F
$$

TNZ012-013-036-069-073-074-231800-
CENTRAL EAST TENNESSEE

CITY           SKY/WX    TMP DP  RH WIND       PRES   REMARKS
KNOXVILLE      PTSUNNY   73  59  61 SW20      30.36S
OAK RIDGE      PTSUNNY   73  63  70 VRB7      30.38S
$$

TNZ083-085-099-231800-
SOUTHEAST TENNESSEE

CITY           SKY/WX    TMP DP  RH WIND       PRES   REMARKS
CHATTANOOGA    FAIR      76  60  57 S6        30.36F
$$

SKY/WX REPORTED AS FAIR MEANS FEW OR NO CLOUDS BELOW
12 THOUSAND FEET.





USA.gov is the U.S. government's official web portal to all federal, state and local government web resources and services.